| time (UTC) | temp F | wind direction | speed knots | gust knots | rain 1hr in | rain 24hr in | rain mn in | humidity % | barometer mb |
| 20260905211602 | 60 | 276 | 0.0 | 1.7 | 0.00 | 0.28 | 0.28 | 62 | 1023.2 |
| 20260905210107 | 61 | 345 | 0.0 | 0.9 | 0.00 | 0.28 | 0.28 | 61 | 1023.1 |
| 20260905204552 | 61 | 269 | 0.0 | 1.7 | 0.00 | 0.28 | 0.28 | 60 | 1022.9 |
| 20260905203050 | 62 | 19 | 0.0 | 2.6 | 0.00 | 0.28 | 0.28 | 59 | 1022.8 |
| 20260905201548 | 62 | 281 | 0.0 | 2.6 | 0.00 | 0.28 | 0.28 | 59 | 1022.6 |
| 20260905200049 | 62 | 281 | 0.0 | 4.3 | 0.00 | 0.28 | 0.28 | 59 | 1022.4 |
| 20260905194546 | 63 | 226 | 0.0 | 1.7 | 0.00 | 0.28 | 0.28 | 60 | 1022.2 |
| 20260905193041 | 63 | 264 | 0.0 | 0.9 | 0.00 | 0.28 | 0.28 | 60 | 1022.0 |
| 20260905191543 | 64 | 272 | 0.0 | 5.2 | 0.00 | 0.28 | 0.28 | 58 | 1021.7 |
| 20260905190050 | 64 | 314 | 0.0 | 5.2 | 0.00 | 0.28 | 0.28 | 58 | 1021.6 |
| 20260905184541 | 65 | 80 | 0.9 | 3.5 | 0.00 | 0.28 | 0.28 | 61 | 1021.4 |
| 20260905183033 | 65 | 243 | 0.0 | 2.6 | 0.00 | 0.28 | 0.28 | 64 | 1021.1 |
| 20260905181531 | 65 | 134 | 0.0 | 4.3 | 0.00 | 0.28 | 0.28 | 63 | 1020.8 |
| 20260905180029 | 65 | 286 | 0.0 | 4.3 | 0.00 | 0.28 | 0.28 | 62 | 1020.5 |
| 20260905174528 | 65 | 217 | 0.9 | 4.3 | 0.00 | 0.28 | 0.28 | 63 | 1020.2 |
| 20260905173025 | 66 | 279 | 0.0 | 1.7 | 0.00 | 0.28 | 0.28 | 63 | 1020.0 |
| 20260905171527 | 67 | 261 | 0.0 | 4.3 | 0.00 | 0.28 | 0.28 | 61 | 1019.8 |
| 20260905170025 | 67 | 210 | 1.7 | 6.1 | 0.00 | 0.28 | 0.28 | 60 | 1019.6 |
| 20260905164522 | 68 | 278 | 0.9 | 5.2 | 0.00 | 0.28 | 0.28 | 60 | 1019.5 |
| 20260905163022 | 68 | 269 | 1.7 | 7.0 | 0.00 | 0.28 | 0.28 | 58 | 1019.5 |
| 20260905161521 | 69 | 304 | 1.7 | 7.0 | 0.00 | 0.28 | 0.28 | 57 | 1019.4 |
| 20260905160024 | 70 | 93 | 1.7 | 8.7 | 0.00 | 0.28 | 0.28 | 55 | 1019.3 |
| 20260905154520 | 70 | 317 | 3.5 | 12.2 | 0.00 | 0.28 | 0.28 | 53 | 1019.1 |
| 20260905153025 | 70 | 217 | 6.1 | 14.8 | 0.00 | 0.28 | 0.28 | 53 | 1019.2 |
| 20260905151520 | 70 | 26 | 3.5 | 10.4 | 0.00 | 0.28 | 0.28 | 53 | 1019.4 |
| 20260905150020 | 70 | 199 | 3.5 | 9.6 | 0.00 | 0.28 | 0.28 | 53 | 1019.2 |
| 20260905144524 | 70 | 141 | 3.5 | 10.4 | 0.00 | 0.28 | 0.28 | 54 | 1019.1 |
| 20260905143017 | 71 | 266 | 3.5 | 12.2 | 0.00 | 0.28 | 0.28 | 53 | 1019.1 |
| 20260905141517 | 71 | 229 | 2.6 | 11.3 | 0.00 | 0.28 | 0.28 | 54 | 1019.2 |
| 20260905140016 | 71 | 70 | 1.7 | 8.7 | 0.00 | 0.28 | 0.28 | 54 | 1019.2 |
| 20260905134515 | 70 | 328 | 1.7 | 9.6 | 0.00 | 0.28 | 0.28 | 54 | 1019.3 |
| 20260905133015 | 69 | 347 | 3.5 | 11.3 | 0.00 | 0.28 | 0.28 | 55 | 1019.3 |
| 20260905131513 | 69 | 278 | 3.5 | 10.4 | 0.00 | 0.28 | 0.28 | 55 | 1019.4 |
| 20260905130015 | 69 | 216 | 4.3 | 13.9 | 0.00 | 0.28 | 0.28 | 54 | 1019.6 |
| 20260905124521 | 69 | 212 | 4.3 | 12.2 | 0.00 | 0.28 | 0.28 | 54 | 1019.6 |
| 20260905123013 | 69 | 327 | 3.5 | 8.7 | 0.00 | 0.28 | 0.28 | 55 | 1019.7 |
| 20260905121512 | 69 | 254 | 5.2 | 12.2 | 0.00 | 0.28 | 0.28 | 53 | 1019.7 |
| 20260905120013 | 69 | 74 | 2.6 | 10.4 | 0.00 | 0.28 | 0.28 | 56 | 1019.6 |
| 20260905114511 | 68 | 218 | 2.6 | 11.3 | 0.00 | 0.28 | 0.28 | 56 | 1019.6 |
| 20260905113008 | 68 | 295 | 4.3 | 13.0 | 0.00 | 0.28 | 0.28 | 57 | 1019.7 |
| 20260905111508 | 68 | 308 | 4.3 | 11.3 | 0.00 | 0.28 | 0.28 | 58 | 1019.8 |
| 20260905110008 | 68 | 307 | 3.5 | 12.2 | 0.00 | 0.28 | 0.28 | 58 | 1019.6 |
| 20260905104505 | 68 | 245 | 2.6 | 10.4 | 0.00 | 0.28 | 0.28 | 62 | 1019.6 |
| 20260905103005 | 67 | 279 | 2.6 | 10.4 | 0.00 | 0.28 | 0.28 | 65 | 1019.6 |
| 20260905101503 | 66 | 203 | 4.3 | 11.3 | 0.00 | 0.28 | 0.28 | 66 | 1019.6 |
| 20260905100002 | 65 | 250 | 0.9 | 9.6 | 0.00 | 0.28 | 0.28 | 71 | 1019.7 |
| 20260905094502 | 65 | 252 | 1.7 | 5.2 | 0.00 | 0.28 | 0.28 | 69 | 1019.7 |
| 20260905093101 | 64 | 328 | 1.7 | 9.6 | 0.00 | 0.28 | 0.28 | 71 | 1019.8 |
| 20260905093002 | 64 | 270 | 2.6 | 9.6 | 0.00 | 0.28 | 0.28 | 71 | 1019.9 |
| 20260905091600 | 63 | 289 | 2.6 | 7.8 | 0.00 | 0.28 | 0.28 | 72 | 1019.8 |
| 20260905090127 | 62 | 25 | 0.9 | 8.7 | 0.00 | 0.28 | 0.28 | 77 | 1019.6 |
| 20260905084555 | 61 | 264 | 3.5 | 9.6 | 0.00 | 0.28 | 0.28 | 76 | 1019.4 |
| 20260905083055 | 60 | 269 | 2.6 | 10.4 | 0.00 | 0.28 | 0.28 | 81 | 1019.4 |
| 20260905081559 | 59 | 8 | 3.5 | 8.7 | 0.00 | 0.28 | 0.28 | 82 | 1019.3 |
| 20260905080055 | 59 | 252 | 1.7 | 4.3 | 0.00 | 0.28 | 0.28 | 87 | 1019.0 |
| 20260905074602 | 57 | 275 | 0.9 | 4.3 | 0.00 | 0.28 | 0.28 | 88 | 1019.0 |
| 20260905073046 | 57 | 263 | 1.7 | 6.1 | 0.00 | 0.28 | 0.28 | 88 | 1018.7 |
| 20260905071544 | 57 | 274 | 0.0 | 7.0 | 0.00 | 0.28 | 0.28 | 91 | 1018.5 |
| 20260905070046 | 56 | 251 | 2.6 | 7.0 | 0.00 | 0.28 | 0.28 | 91 | 1018.3 |
| 20260905064542 | 56 | 271 | 0.9 | 5.2 | 0.00 | 0.28 | 0.28 | 91 | 1018.2 |
| 20260905063042 | 56 | 77 | 0.0 | 2.6 | 0.01 | 0.28 | 0.28 | 92 | 1018.5 |
| 20260905061541 | 55 | 284 | 0.0 | 1.7 | 0.03 | 0.28 | 0.28 | 91 | 1018.1 |
| 20260905060048 | 55 | 103 | 0.0 | 3.5 | 0.06 | 0.28 | 0.28 | 91 | 1018.4 |
| 20260905054541 | 54 | 211 | 1.7 | 7.8 | 0.10 | 0.28 | 0.28 | 91 | 1017.2 |
| 20260905053038 | 54 | 184 | 2.6 | 7.0 | 0.11 | 0.28 | 0.28 | 91 | 1017.6 |
| 20260905051538 | 55 | 213 | 0.9 | 3.5 | 0.10 | 0.25 | 0.25 | 89 | 1018.3 |
| 20260905050031 | 55 | 314 | 0.0 | 6.1 | 0.07 | 0.21 | 0.21 | 87 | 1018.2 |
| 20260905044536 | 57 | 297 | 0.9 | 3.5 | 0.04 | 0.18 | 0.18 | 88 | 1018.1 |
| 20260905043026 | 57 | 232 | 0.0 | 1.7 | 0.02 | 0.16 | 0.16 | 88 | 1017.5 |
| 20260905041525 | 57 | 217 | 0.0 | 2.6 | 0.02 | 0.15 | 0.15 | 89 | 1017.4 |
| 20260905040027 | 57 | 274 | 0.0 | 1.7 | 0.05 | 0.14 | 0.14 | 90 | 1017.7 |
| 20260905034521 | 57 | 242 | 0.0 | 0.9 | 0.05 | 0.14 | 0.14 | 91 | 1017.1 |
| 20260905033020 | 58 | 244 | 0.0 | 1.7 | 0.06 | 0.14 | 0.14 | 90 | 1016.9 |
| 20260905031519 | 58 | 239 | 0.0 | 0.9 | 0.09 | 0.13 | 0.13 | 89 | 1017.0 |
| 20260905030018 | 58 | 265 | 0.9 | 2.6 | 0.06 | 0.09 | 0.09 | 88 | 1016.9 |
| 20260905024517 | 58 | 68 | 0.0 | 0.9 | 0.06 | 0.09 | 0.09 | 87 | 1015.8 |
| 20260905023019 | 59 | 297 | 0.0 | 0.9 | 0.09 | 0.09 | 0.09 | 87 | 1016.6 |
| 20260905021512 | 59 | 277 | 0.0 | 0.9 | 0.05 | 0.05 | 0.05 | 85 | 1016.0 |
| 20260905020012 | 60 | 64 | 0.0 | 0.9 | 0.04 | 0.04 | 0.04 | 82 | 1015.3 |
| 20260905014507 | 60 | 49 | 0.0 | 1.7 | 0.04 | 0.04 | 0.04 | 81 | 1015.3 |
| 20260905013002 | 62 | 15 | 1.7 | 4.3 | 0.00 | 0.00 | 0.00 | 72 | 1015.3 |
| 20260905011502 | 63 | 275 | 1.7 | 7.0 | 0.00 | 0.00 | 0.00 | 71 | 1014.9 |
| 20260905010108 | 63 | 8 | 0.9 | 6.1 | 0.00 | 0.00 | 0.00 | 71 | 1015.1 |
| 20260905004557 | 63 | 328 | 2.6 | 11.3 | 0.00 | 0.00 | 0.00 | 72 | 1015.2 |
| 20260905003056 | 63 | 56 | 3.5 | 8.7 | 0.00 | 0.00 | 0.00 | 75 | 1015.2 |
| 20260905001556 | 64 | 23 | 5.2 | 18.2 | 0.00 | 0.00 | 0.00 | 74 | 1014.6 |
| 20260905000058 | 69 | 304 | 8.7 | 15.6 | 0.00 | 0.00 | 0.00 | 66 | 1013.8 |
| 20260904234544 | 71 | 274 | 1.7 | 5.2 | 0.00 | 0.00 | 0.00 | 64 | 1012.5 |
| 20260904233043 | 71 | 283 | 0.9 | 5.2 | 0.00 | 0.00 | 0.00 | 63 | 1012.5 |
| 20260904231548 | 71 | 271 | 0.9 | 4.3 | 0.00 | 0.00 | 0.00 | 63 | 1012.4 |
| 20260904230058 | 71 | 246 | 0.9 | 3.5 | 0.00 | 0.00 | 0.00 | 63 | 1012.2 |
| 20260904224539 | 70 | 241 | 0.0 | 3.5 | 0.00 | 0.00 | 0.00 | 63 | 1012.0 |
| 20260904223046 | 70 | 243 | 0.0 | 3.5 | 0.00 | 0.00 | 0.00 | 63 | 1011.9 |
| 20260904221535 | 70 | 226 | 0.9 | 3.5 | 0.00 | 0.00 | 0.00 | 64 | 1011.9 |
| 20260904220031 | 68 | 197 | 0.0 | 2.6 | 0.00 | 0.00 | 0.00 | 66 | 1012.0 |
| 20260904214532 | 68 | 218 | 0.0 | 1.7 | 0.00 | 0.00 | 0.00 | 68 | 1011.9 |
| 20260904213029 | 68 | 214 | 0.0 | 1.7 | 0.00 | 0.00 | 0.00 | 68 | 1011.7 |